Regional Weather Roundup
Issued by NWS Grand Forks, ND

Home | Current Version | Previous Version | Text Only | Print | Product List | Glossary Off
Versions: 1 2 3 4 5 6 7 8 9 10 11 12 13 14 15 16 17 18 19 20 21 22 23 24 25 26 27 28 29 30 31 32 33 34 35 36 37 38 39 40 41 42 43 44 45 46 47 48 49 50

000
ASUS43 KFGF 241510
RWRFGF
PRAIRIE TO PINES  WEATHER ROUNDUP
NATIONAL WEATHER SERVICE EASTERN NORTH DAKOTA/GRAND FORKS ND
1000 AM CDT THU APR 24 2014

 **SATELLITE DATA USED TO AUGMENT SKY COVER AT AUTOMATED STATIONS**
 *****  WEATHER ACROSS EASTERN NORTH DAKOTA  *****

CITY           SKY/WX    TMP DP  RH WIND       PRES   REMARKS
GRAND FORKS    LGT RAIN  41  39  93 SE12      29.76S
GRAND FRKS AFB MIX PCPN  42  42 100 SE10      29.75F
GRAND FRKS NWS   N/A     41 N/A N/A SE9         N/A
DEVILS LAKE    CLOUDY    39  36  87 S9        29.70F
FARGO          LGT RAIN  42  40  92 SE6       29.76S FOG
WAHPETON ARPT  CLOUDY    41  37  87 SE6       29.78R
$$

 ***** WEATHER ACROSS CENTRAL AND WESTERN NORTH DAKOTA  *****

CITY           SKY/WX    TMP DP  RH WIND       PRES   REMARKS
BISMARCK       SUNNY     51  29  42 W14       29.75F
MINOT          SUNNY     49  32  52 W17       29.67R
JAMESTOWN      FOG       39  39 100 S3        29.71F VSB 1/2
MINOT AFB      SUNNY     47  35  63 NW14      29.67S
GARRISON         N/A     47  35  63 W15       29.71S
WILLISTON      SUNNY     47  31  53 W10       29.73R
DICKINSON      SUNNY     51  25  36 W22       29.75R
HETTINGER      PTSUNNY   51  28  41 W18       29.80F
$$

 *****  OTHER AIRPORT OBSERVATIONS IN OUR AREA  *****

CITY           SKY/WX    TMP DP  RH WIND       PRES   REMARKS
WALHALLA         N/A     39  39 100 SE10      29.75F FOG
GRAFTON AIRPOR CLOUDY    39  39 100 SE10      29.76F FOG
VALLEY CITY AR PTSUNNY   39  39 100 S7        29.74R FOG
CANDO          FOG       39  39 100 S9        29.70F VSB 3/4
CAVALIER APRT  CLOUDY    39  39 100 SE9       29.75F FOG
GWINNER        MOSUNNY   43  43 100 SE7       29.75F
ROLLA          FOG       37  37 100 S12       29.70R VSB<1/4
 ***** THE ABOVE OBSERVATIONS ARE NON NWS ARE NOT QUALITY
       CONTROLLED AND MAY MIS-REPORT RAIN FOR SNOW...
$$

  *****  WEATHER ACROSS NORTHERN MINNESOTA  *****

CITY           SKY/WX    TMP DP  RH WIND       PRES   REMARKS
FLAG ISLAND    CLOUDY    37  36  93 E8        29.84F FOG
WARROAD        MIX PCPN  37  34  87 SE8       29.82F
ROSEAU         CLOUDY    39  34  81 SE9       29.81F HAZE
HALLOCK        LGT RAIN  39  37  93 SE10      29.77F
THF RVR FALLS  CLOUDY    37  34  87 SE9       29.79S
BAUDETTE       LGT RAIN  38  36  92 SE9       29.84F
WASKISH        DRIZZLE   37  37 100 E12       29.82S
CROOKSTON      MIX PCPN  39  39 100 SE8       29.78S
$$
  *****  WEATHER ACROSS CENTRAL AND WEST MINNESOTA  *****

CITY           SKY/WX    TMP DP  RH WIND       PRES   REMARKS
FOSSTON        DRIZZLE   37  36  93 SE6       29.78S
BEMIDJI        CLOUDY    36  36  98 SE8       29.79S FOG
PARK RAPIDS    CLOUDY    39  38  96 SE10      29.77R FOG
ELBOW LAKE     RAIN      40  39  99 E8        29.76S
WADENA         RAIN      39  37  93 SE8       29.76R
DETROIT LAKES  RAIN      39  37  93 S7        29.78R
MOORHEAD       DRIZZLE   41  41 100 CALM      29.78R
FERGUS FALLS   LGT RAIN  39  37  93 SE8       29.74S
MORRIS MN      RAIN      41  39  93 E5        29.76R
STAPLES        DRIZZLE   39  37  93 SE7       29.77S
$$
  *****  WEATHER ELSEWHERE ACROSS MINNESOTA  *****

CITY           SKY/WX    TMP DP  RH WIND       PRES   REMARKS
DULUTH         DRIZZLE   35  33  92 E15       29.88F FOG
INTRNTL FALLS  LGT RAIN  39  36  89 SE12      29.87F
ELY            CLOUDY    37  34  87 SE10      29.92S
CLOQUET        CLOUDY    36  34  93 E9        29.86F
WHEATON        MIX PCPN  43  41  93 CALM      29.79R
BRAINERD       CLOUDY    43  37  79 SE12      29.79F HAZE
HIBBING        CLOUDY    37  34  89 SE12      29.87S FOG
ALEXANDRIA     LGT RAIN  41  39  93 SE8       29.77R FOG
SAINT CLOUD    LGT RAIN  41  38  89 E7        29.78S FOG
MINNEAPOLIS    RAIN      40  39  97 E12       29.77F
$$

  *****  WEATHER ACROSS SOUTH DAKOTA  *****

CITY           SKY/WX    TMP DP  RH WIND       PRES   REMARKS
SIOUX FALLS    CLOUDY    47  44  90 N16       29.71F
BROOKINGS      NOT AVBL
WATERTOWN      LGT RAIN  41  40  96 N8        29.73F FOG
HURON          PTSUNNY   49  41  74 NW10      29.75F
SISSETON         N/A     40  40 100 SE3       29.75F
ABERDEEN       CLOUDY    48  41  76 W8        29.75F
MITCHELL       CLOUDY    51  46  83 NW13      29.77S
PIERRE         SUNNY     54  30  40 NW17      29.80R
MOBRIDGE       SUNNY     51  29  42 NW10      29.75S
RAPID CITY     SUNNY     54  21  27 NW5       29.85F
$$

  *****  SOME WEATHER IN NEARBY STATES *****

CITY           SKY/WX    TMP DP  RH WIND       PRES   REMARKS
GLASGOW MT     MOSUNNY   46  31  55 W13       29.77S
GREAT FALLS MT PTSUNNY   47  31  53 SW18      29.78F
CHEYENNE WY    SUNNY     43  15  32 W18G28    30.01R
SCOTTSBLUFF NE SUNNY     49  24  37 W14       29.96F
OMAHA NE       CLOUDY    54  49  83 NW13      29.69R
DES MOINES IA  LGT RAIN  53  50  89 S14       29.64F FOG
DAVENPORT IA   LGT RAIN  54  40  59 SE26G36   29.79F
CHICAGO IL     CLOUDY    54  35  48 SE22      29.94F
EAU CLAIRE WI  LGT RAIN  40  38  93 SE21G26   29.80F
LA CROSSE WI   LGT RAIN  42  39  89 SE13      29.81F
$$

  *****  SOME NATIONAL WEATHER *****

CITY           SKY/WX    TMP DP  RH WIND       PRES   REMARKS
LA GUARDIA NY  SUNNY     50  15  24 NW21G32   29.91S
RALEIGH NC     PTSUNNY   59  31  34 NE8       30.17R
ATLANTA GA     MOSUNNY   65  41  41 E8        30.06S
NEW ORLEANS LA MOSUNNY   74  66  76 S8        29.99R
OKLAHOMA CITY  CLOUDY    61  52  72 NW22G31   29.74R
ALBUQUERQUE NM MOSUNNY   52  11  19 NW9       30.16R
SALT LAKE CITY PTSUNNY   47  23  38 SE14G24   30.06R
LOS ANGELES CA MOSUNNY   62  52  69 E7        29.99R
BOISE ID       LGT RAIN  45  40  82 E8        29.95R
SEATTLE WA     CLOUDY    50  46  86 S12       29.71R
$$

*** WEATHER ACROSS MANITOBA...SASKATCHEWAN AND ONTARIO ***
                ***ONTARIO***

CITY           SKY/WX    TMP DP  RH WIND       PRES   REMARKS
GERALDTON      CLOUDY    45  23  42 S7        30.10F
THUNDER BAY    CLOUDY    37  28  70 E10       30.08F
SIOUX LOOKOUT  CLOUDY    43  27  52 SE6       29.97F
TORONTO        MOSUNNY   48  14  25 N13G22    30.16S
BIG TROUT LK   SUNNY     30  19  64 E10G17    30.18S WCI  21
PICKLE LAKE    PTSUNNY   46  21  36 SW3       30.03S
DRYDEN         CLOUDY    39  32  75 E9G18     29.92F
KENORA         LGT RAIN  37  36  93 SE13G18   29.87F
$$
                *** MANITOBA***

CITY           SKY/WX    TMP DP  RH WIND       PRES   REMARKS
BRANDON        FOG       39  39 100 E7        29.71R VSB 1/4
DAUPHIN        LGT RAIN  37  36  93 SE13G18   29.73S FOG
ISLAND LAKE    PTSUNNY   30  25  80 E12G22    30.09F WCI  21
PILOT MOUND      N/A     39  39 100 S13         N/A
THE PAS        CLOUDY    28  21  74 E17G24    29.92S WCI  16
THOMPSON       CLOUDY    19  18  93 E17       30.21S WCI   4
WINNIPEG       DRIZZLE   39  37  93 SE13      29.80S
LYNN LAKE      CLOUDY    19  14  79 E16G26    30.16F WCI   5
CHURCHILL      LGT SNOW  18  14  86 E6        30.46R WCI   9
GILLAM         FLURRIES  21  14  73 NE12G20   30.31F WCI   9
$$
                ***SASKATCHEWAN***

CITY           SKY/WX    TMP DP  RH WIND       PRES   REMARKS
ESTEVAN        PTSUNNY   45  43  93 N9        29.68R
KINDERSLEY     CLOUDY    37  32  81 W23       29.63S
LLOYDMINSTER   LGT SNOW  32  32 100 NE8       29.63R FOG     WCI  25
PRINCE ALBERT  LGT SNOW  34  32  93 E21G30    29.66R WCI  22
REGINA         CLOUDY    41  36  81 W17       29.66R
YORKTON        CLOUDY    37  37 100 SE14      29.64S
N. BATTLEFORD  CLOUDY    36  34  93 E15       29.61S
LA RONGE       CLOUDY    30  23  74 NE18G26   29.89F WCI  18
SASKATOON      CLOUDY    39  37  93 W12       29.58R
SWIFT CURRENT  SUNNY     43  34  70 W26G33    29.66R
$$
NOTE: THESE ARE AUTOMATED STATIONS WITH LIMITED QUALITY CONTROL
      "FAIR" INDICATES FEW OR NO CLOUDS BELOW 12,000 FEET WITH NO
      SIGNIFICANT WEATHER AND/OR OBSTRUCTIONS TO VISIBILITY.
      SKY/WX - SKY CONDITION AND SIGNIFICANT WEATHER.
      TMP - AIR TEMPERATURE.    DP   - DEWPOINT TEMPERATURE.
      RH  - RELATIVE HUMIDITY.  PRES - PRESSURE.
      HX  - HEAT INDEX.         WCI  - WIND CHILL INDEX.
$



USA.gov is the U.S. government's official web portal to all federal, state and local government web resources and services.